COSMOS 1292

Satellite information

Favourite Embed

Satellite Type and Status

PAYLOADIN ORBIT

Key statistics

Satellite COSMOS 1292 at a glance.

Uptime

16103

Days in orbit

Revolutions

≈ 12.5

Per day

Orbit

LEO

Low Earth Orbit

Inclination

74.0

Latest

Satellite identification and parameters

Extended collection of information and parameters for COSMOS 1292.

Object identification

Identified? True

Debris? False

Object name: COSMOS 1292

International designator: 1981-074F

Object number (NORAD): 12641

Object ID (CCSDS): 12641

Country: COMMONWEALTH OF INDEPENDENT STATES (CIS)

Current information (Y/N): Y

RCS size: MEDIUM

Orbital parameters

Period: 115.317 minutes

Inclination: 74.0337 deg

SMA: 7847.924 km

Apoapsis: 1476.397 km

Periapsis: 1463.182 km

RAAN: 42.0926 deg

Eccentricy: 0.00084198

Argument of periapsis: 212.7242 deg

Mean anomaly: 263.2908 deg

Mean motion: 12.4873574 rev/day

Mean motion (dot): -0.00000019 rev/day2

B* drag term: -0.000018385641 1/REarth

Two-line elements (TLE)

Creation date: Sept. 7, 2025, 3:09 a.m.

Reference frame: TEME

Reference center: EARTH

Epoch: Sept. 6, 2025, 9:14 p.m. UTC

TLE line 0: 0 COSMOS 1292

TLE line 1: 1 12641U 81074F 25249.88526458 -.00000019 00000-0 -18386-4 0 9994

TLE line 2: 2 12641 74.0337 42.0926 0008420 212.7242 263.2908 12.48735740 9715

Live tracking on map

Real-time ground track for satellite COSMOS 1292.

In-orbit conjunctions

A list of the most updated potential collisions computed for object COSMOS 1292.

Target Orbit TCA Probability of collision Miss distance Type
COSMOS 1823 DEB LEO 2025-07-20 06:58:01 0.0003445144 580.0 (m) DEBRIS

Associated space launch

Military communications satellites

COSMOS 1292 was lifted into orbit during the mission ‘Kosmos-3M | Strela-1M 217-224’, on board a Kosmos-3M space rocket.

The launch took place on Aug. 6, 1981, 11:49 a.m. from 132/2.

For more information about the launch, click the button.

Launch to space Kosmos-3M | Strela-1M 217-224
Kosmos-3M | Strela-1M 217-224

Agency: N/A

Status: Launch Successful

Launch date: Aug. 6, 1981, 11:49 a.m. UTC

Rocket: Kosmos-3M

Launch pad: 132/2

Location: Plesetsk Cosmodrome, Russian Federation

...

Latest news about this satellite

There are no fresh news available about this satellite. Check back as we update our databases every day.


Newsletter sign-up

Weekly statistics, charts and insights to help you stay on top of the space industry.